カタログに戻る

BREEZE-M DEB

運用中HEO
NORAD 32036·DEBRIS·🇷🇺 Russia

打ち上げ Feb 28, 2006 から Baikonur Cosmodrome

Loading…

次のパス (今後24時間)

TLE

最新Source: Space-Track

元期: Sep 14, 2026, 02:56 UTC

1 32036U 06006P   26257.12244619  .00000817  00000-0  90724-3 0  9998
2 32036  51.6709  57.4025 5090360 102.0176 317.2315  5.29611537375227

AllMySatでBREEZE-M DEBをリアルタイム追跡

Download on the App Store